Wind_Speed
16 17 15 11 10 9 9 8 7 6 6 6 6 7 9 10 12 13 15 15 13 11 11 11 12 13 15 15 15 15 14 13 13 13 14 15 15 14 14 14 14 14 14 15 16 17 19 20 22 23 24 25 26 26 26 27 27 28 28 28 27 27 25 24 24 23 23 23 23 23 24 24 25 25 26 27 28 29 30 31 32 32 33 34 35
18 19 18 14 11 9 9 7 7 7 5 4 5 6 7 8 9 10 11 13 13 12 11 10 10 11 13 14 14 14 13 13 12 11 11 12 13 13 13 13 13 13 13 14 15 16 17 19 20 21 22 23 24 25 25 26 27 28 29 29 29 28 27 26 26 25 24 25 25 26 26 26 27 27 28 29 30 31 32 33 33 34 35 36 36
20 19 18 17 14 10 10 9 8 7 6 5 6 6 6 6 7 8 9 9 11 11 10 10 9 9 10 11 12 12 12 12 11 10 9 10 11 11 11 12 12 12 12 12 13 14 15 17 18 19 20 21 22 23 24 25 26 27 28 29 29 29 28 27 27 27 26 26 27 27 27 27 28 28 29 30 31 32 33 34 34 35 35 36 36
21 19 17 19 17 12 11 11 10 10 10 9 9 7 6 4 4 6 7 8 8 9 9 9 8 8 8 8 9 10 10 10 10 9 8 8 8 8 9 10 10 10 10 11 11 12 13 15 16 17 18 20 21 22 23 24 25 26 27 28 29 29 29 28 28 27 27 27 27 27 27 28 28 29 30 31 32 32 32 33 33 33 33 34 34
22 20 19 20 19 15 14 14 13 13 14 14 13 11 8 6 5 4 5 7 8 8 7 7 7 6 6 6 7 8 8 8 8 7 7 7 6 6 6 7 7 8 9 9 9 10 11 12 13 14 15 17 18 19 21 22 23 23 24 26 27 27 27 27 27 27 26 26 26 26 27 28 29 29 30 30 30 31 31 30 30 30 30 30 31
24 23 23 22 20 18 19 18 17 17 17 17 16 14 12 10 8 7 6 7 8 8 8 7 7 6 5 4 4 5 6 6 6 6 5 5 4 4 3 4 4 5 6 7 7 7 8 8 9 10 11 13 14 16 17 18 19 20 21 22 23 24 24 24 24 25 25 24 25 25 26 27 28 28 28 28 28 28 27 27 27 27 27 27 27
27 26 26 25 23 21 22 22 22 22 21 19 19 18 17 15 12 10 9 8 9 9 10 8 7 7 6 4 3 3 3 3 4 4 3 3 3 2 1 1 2 2 3 4 5 5 5 5 6 7 7 9 10 11 13 14 14 15 16 17 18 19 20 21 21 22 22 23 23 24 25 26 26 26 26 26 25 24 24 23 23 23 23 23 23
30 29 28 27 26 24 23 23 23 24 25 25 23 21 19 18 16 14 13 11 10 11 11 11 9 7 7 6 5 2 1 1 1 2 2 1 0 1 1 1 1 1 0 1 1 2 2 3 3 4 5 6 7 8 9 9 10 10 11 12 14 15 16 17 18 18 19 20 22 23 24 24 24 23 23 22 21 20 20 20 19 19 19 19 19
35 34 32 32 31 30 28 27 27 27 27 27 27 25 22 20 19 17 16 14 13 13 14 14 13 11 9 8 7 6 4 2 2 2 2 1 1 2 3 3 3 3 3 3 2 2 2 2 2 3 3 4 4 5 5 5 5 6 6 8 9 11 12 13 15 15 16 18 19 21 22 22 21 20 19 19 18 17 17 16 16 15 15 15 15
38 37 37 37 37 36 34 32 30 29 28 28 29 28 24 22 21 20 18 17 17 17 17 17 16 15 14 12 10 9 7 6 5 5 5 4 3 3 4 5 5 5 4 4 4 3 3 3 3 3 3 2 2 1 1 1 1 2 3 4 6 8 9 9 10 12 13 15 16 18 19 19 18 17 16 16 15 15 14 13 13 12 11 11 11
42 40 40 40 39 39 37 33 31 31 30 30 31 30 26 23 22 21 21 20 19 20 19 19 20 19 18 16 14 11 10 10 9 8 7 6 6 5 4 5 6 7 7 6 5 5 4 4 5 5 5 4 3 3 3 3 3 2 3 3 3 4 5 5 6 8 10 11 13 14 16 16 16 16 15 14 14 13 13 12 11 10 10 9 8
45 41 40 40 40 40 38 35 33 32 31 32 34 34 30 26 25 25 23 22 22 22 23 22 23 23 22 20 18 15 13 13 13 12 11 9 9 8 7 5 5 7 8 8 8 8 8 8 8 8 8 7 6 6 6 6 5 4 3 3 3 3 3 3 5 6 8 9 10 11 13 14 15 16 15 15 14 14 13 13 12 11 10 9 8
48 44 41 40 40 40 38 37 37 36 34 34 37 38 36 32 30 29 27 25 24 24 24 25 26 26 26 24 23 20 18 16 16 16 15 13 12 11 9 8 7 7 8 9 10 11 11 11 11 11 10 9 9 9 9 9 8 6 6 6 6 5 5 6 7 8 9 10 11 11 12 14 15 16 16 16 16 15 15 14 14 13 12 11 10
51 48 45 43 42 40 39 38 40 40 38 37 38 40 40 38 36 33 31 30 28 26 26 28 28 29 29 28 26 24 22 21 19 19 18 18 17 14 12 10 8 8 8 9 10 12 13 13 13 12 11 11 11 12 12 11 10 9 8 8 8 7 7 9 10 10 11 11 12 12 13 14 16 17 17 18 17 17 16 16 16 15 14 13 13
53 50 48 46 44 42 40 39 40 40 40 39 40 41 42 42 42 39 36 33 31 30 29 30 30 30 31 30 29 27 26 25 23 22 21 20 20 19 17 14 11 10 10 10 11 12 13 14 14 14 13 13 14 15 14 14 13 12 11 10 10 10 10 11 12 13 13 13 13 14 14 15 16 17 18 18 18 19 18 18 18 18 16 16 15
55 52 48 46 44 42 41 41 42 42 41 41 43 45 44 44 45 44 40 36 34 33 32 31 32 32 32 31 30 30 30 29 27 26 25 24 22 21 20 19 16 14 13 13 13 13 14 14 15 15 16 16 17 17 17 16 16 15 14 13 12 12 12 13 15 15 14 15 16 16 16 17 18 18 18 19 20 20 20 20 20 21 20 19 19
56 54 49 47 45 44 43 44 44 44 43 42 43 43 44 44 46 46 44 39 37 36 34 34 35 34 33 32 31 31 31 31 30 28 27 26 26 24 23 22 21 20 18 17 16 16 16 16 15 16 16 18 19 20 19 19 18 18 17 16 15 14 14 16 18 18 17 17 17 18 18 19 20 21 21 21 21 22 22 22 22 23 23 22 22
58 57 54 51 49 48 48 48 46 44 43 42 43 43 42 43 44 46 46 42 39 37 37 38 38 38 37 35 33 32 31 32 33 32 29 28 27 26 26 25 25 24 23 21 20 19 19 18 17 17 16 17 19 20 21 22 21 21 20 19 18 17 16 17 19 20 21 20 19 19 20 20 21 22 23 24 24 25 25 25 25 25 26 25 24
60 60 58 55 52 51 52 52 51 49 47 46 46 44 43 41 41 43 45 45 42 41 41 41 40 40 42 41 37 34 35 36 35 34 33 31 30 29 29 29 28 27 27 26 25 23 22 20 19 19 17 17 18 20 22 23 24 24 24 23 22 20 19 20 21 22 23 24 23 22 22 21 22 23 23 24 25 26 28 29 29 29 29 29 28
64 63 61 59 56 54 53 54 54 53 53 53 52 50 47 44 43 44 47 48 47 46 46 45 43 42 44 44 41 38 39 38 36 36 36 35 35 34 34 33 32 30 29 29 28 27 25 24 23 22 21 20 19 20 21 23 25 26 26 26 26 24 23 22 23 24 25 26 27 26 25 24 23 24 24 24 25 26 28 29 30 30 31 32 32
69 66 64 62 61 59 57 57 57 56 56 56 56 56 54 51 49 48 48 49 51 50 49 49 48 47 47 47 43 41 41 40 38 37 38 39 40 40 40 39 37 35 33 32 32 31 29 28 27 26 25 24 23 23 23 24 26 27 28 29 28 28 27 26 25 26 27 28 29 29 29 27 26 26 26 26 26 26 27 28 29 30 31 33 34
76 73 69 67 66 64 62 62 63 62 60 59 58 59 60 59 58 55 52 51 52 52 52 52 52 53 53 52 48 46 46 45 42 39 40 43 46 45 44 43 42 41 38 37 36 35 33 32 31 30 29 29 29 29 28 28 29 29 30 30 31 30 30 29 28 28 29 30 31 31 31 31 31 30 29 28 28 27 27 28 28 29 31 32 33
80 79 77 74 72 70 66 66 67 67 66 65 64 64 64 64 65 63 59 56 56 56 56 55 55 56 56 55 53 52 52 51 50 46 45 48 51 50 48 46 46 46 45 42 40 38 37 36 35 33 33 33 33 34 34 34 33 33 33 33 33 32 32 32 31 31 31 32 32 33 33 33 34 34 33 32 30 29 29 28 28 30 31 33 34
82 82 81 79 78 76 73 71 70 70 71 70 68 68 70 69 69 68 65 62 61 61 60 60 59 58 58 58 58 58 57 56 56 53 50 51 53 53 51 49 48 48 49 47 45 43 41 40 39 38 36 36 36 37 37 37 37 37 38 37 36 34 34 34 35 34 34 34 34 34 34 34 35 36 36 35 34 32 31 30 30 31 32 34 35
86 84 83 82 81 81 80 78 75 73 72 73 73 72 72 73 72 71 68 65 64 64 63 63 63 62 62 63 62 61 60 60 58 57 56 57 57 56 53 51 50 50 51 51 49 47 45 44 43 42 41 40 40 40 41 41 41 40 41 42 40 39 38 38 38 38 37 37 37 37 37 36 36 36 37 37 37 35 34 34 34 34 35 35 37
90 89 87 86 84 83 83 84 83 79 75 75 75 75 75 75 75 73 70 67 65 66 65 65 65 65 65 65 64 63 62 61 59 59 61 62 61 59 57 54 52 51 52 53 52 50 49 48 47 47 47 46 46 45 45 45 45 45 45 45 45 44 44 44 44 44 42 41 41 41 41 41 40 39 38 38 38 38 38 37 37 37 37 38 39
91 90 89 89 88 88 86 85 87 87 84 81 79 78 78 77 77 76 74 70 67 67 67 68 68 68 67 66 66 65 64 63 61 61 63 64 64 63 61 58 55 54 54 54 53 53 53 53 52 52 53 54 53 52 50 49 49 49 49 49 49 49 49 49 49 49 48 47 46 45 44 44 44 44 43 42 42 41 41 40 40 39 39 39 41
91 91 90 89 89 91 91 89 89 90 90 89 87 85 83 82 81 79 78 76 73 70 70 70 71 71 70 68 67 67 67 66 65 64 64 65 65 65 64 62 60 59 58 58 57 57 57 57 57 57 58 58 58 56 55 53 52 52 52 52 52 53 53 53 52 52 52 52 52 51 49 48 46 46 46 46 46 45 45 44 43 43 42 42 42
94 93 92 91 90 91 93 94 93 91 91 92 92 91 89 88 86 85 83 82 80 78 76 74 74 75 74 73 72 71 71 71 70 69 69 68 68 68 68 66 65 64 64 65 64 63 62 62 62 62 62 63 63 62 60 59 58 56 55 54 55 56 56 56 56 55 55 55 55 55 55 54 52 50 48 48 48 48 48 47 46 46 46 46 46
96 96 95 95 94 94 94 96 97 97 95 93 93 94 93 91 90 89 87 86 85 83 81 79 78 78 79 79 78 77 76 75 75 75 75 75 74 74 73 72 72 73 73 73 72 70 68 68 68 68 68 68 69 69 68 67 65 63 62 60 59 59 60 59 59 59 59 58 58 58 58 58 57 56 55 53 51 50 49 49 49 48 47 48 48
98 98 98 98 98 98 97 97 99 101 101 99 96 95 95 94 93 92 91 89 88 87 86 85 83 82 82 81 81 80 80 79 79 80 80 80 80 80 80 81 81 82 82 81 79 76 74 72 72 73 74 74 75 76 76 74 72 70 68 67 66 65 65 64 64 63 63 62 61 61 62 62 62 61 61 60 58 56 53 52 51 50 49 49 49
101 101 101 101 101 102 101 100 100 101 104 105 104 101 99 97 96 95 95 94 93 91 90 89 88 87 86 84 83 82 82 82 82 83 83 84 84 85 85 86 86 86 86 86 84 82 80 79 79 80 81 82 82 82 81 80 78 76 74 73 72 71 70 69 69 68 68 67 66 66 66 67 67 66 65 65 64 63 61 58 56 55 54 54 53
105 104 104 104 104 105 105 106 105 104 105 107 108 108 107 104 102 100 99 98 97 96 95 94 94 93 92 91 89 87 86 85 84 84 84 85 86 87 88 88 89 90 90 90 89 87 86 86 87 89 90 90 90 89 87 85 84 82 81 80 78 77 76 74 74 73 73 72 71 70 70 70 70 70 70 69 69 68 67 66 64 62 61 60 59
108 108 107 107 107 107 108 109 109 109 109 109 110 111 112 112 111 109 107 105 104 103 103 102 102 102 101 101 100 99 97 95 93 91 89 88 88 89 89 90 91 92 93 93 92 92 92 92 94 96 97 97 96 95 93 92 90 88 87 86 86 84 82 80 78 77 77 76 75 74 73 73 73 73 74 73 73 72 72 71 70 69 68 66 64
112 112 111 111 110 110 110 111 111 112 113 113 113 114 115 116 116 116 115 114 114 113 112 112 111 110 110 110 109 108 106 105 103 101 99 96 95 94 94 94 94 96 97 97 98 98 99 100 101 101 102 102 102 101 100 99 98 96 95 93 92 90 88 86 84 82 81 80 79 77 75 75 74 75 76 77 77 76 76 75 75 74 73 72 70
115 115 115 114 114 114 113 113 114 114 115 116 116 116 117 117 118 119 120 120 120 119 119 119 118 117 116 115 114 112 111 110 108 107 106 105 103 102 101 101 102 103 104 105 106 106 107 107 107 107 106 106 106 106 106 105 104 103 101 99 97 95 93 91 89 87 86 84 83 81 79 78 77 76 76 78 79 79 79 79 79 78 77 76 75
117 117 117 118 118 117 117 116 116 116 117 118 119 119 120 120 120 120 121 122 123 123 123 123 122 121 120 119 118 117 116 115 114 112 111 110 110 109 109 108 108 108 108 109 109 110 110 110 111 110 110 110 110 110 109 108 107 106 105 103 101 99 97 95 94 92 90 89 88 86 85 83 81 80 79 79 80 81 82 81 81 81 81 80 80
119 119 119 119 120 120 120 120 119 119 119 120 120 121 122 123 123 123 123 124 124 124 124 124 124 124 123 122 122 122 121 120 119 118 117 116 115 115 114 114 114 114 114 114 114 114 114 114 114 114 114 114 114 113 113 112 111 109 108 107 105 103 101 100 98 96 95 93 92 91 90 88 86 84 83 83 84 84 84 84 84 84 84 84 84
122 121 121 121 121 121 121 122 122 122 122 122 122 123 123 124 125 126 127 127 128 127 127 127 126 126 125 125 125 125 125 125 124 124 123 122 122 121 121 121 121 122 122 122 121 121 120 119 118 118 118 117 116 116 115 114 113 112 111 110 109 107 105 104 102 101 99 98 97 96 95 94 92 90 89 88 88 88 89 89 88 88 88 87 87
123 123 123 123 122 122 122 122 123 123 124 124 125 125 125 126 126 127 128 129 130 130 131 131 131 131 131 131 131 131 130 130 130 130 130 129 129 128 128 128 128 127 127 126 125 124 123 122 121 120 120 119 118 117 117 116 116 115 114 113 112 111 109 108 106 105 104 102 101 100 99 98 97 96 94 93 93 93 93 94 94 94 94 93 92
125 125 125 125 125 124 124 123 123 124 125 125 126 126 127 128 128 129 129 129 130 130 131 132 132 133 134 134 134 135 134 134 134 134 134 133 132 132 132 131 130 130 129 128 127 126 126 125 124 123 122 121 120 120 119 119 118 117 116 116 115 114 113 112 111 110 108 107 106 104 103 103 102 101 99 98 97 97 97 98 98 99 99 98 97
126 126 126 126 126 127 126 126 126 125 125 126 126 127 128 129 129 130 130 131 131 131 132 132 132 133 133 134 134 134 134 134 135 134 134 134 133 133 133 132 132 132 131 131 130 129 128 128 127 126 125 125 124 123 122 122 121 120 119 118 118 117 116 115 114 114 113 111 110 109 108 107 106 105 104 103 102 101 100 100 100 101 101 101 100
126 126 126 126 126 126 127 127 128 128 128 128 129 129 129 129 130 130 130 131 132 132 133 133 134 134 134 135 135 135 135 135 135 135 135 135 135 134 134 134 133 134 133 133 132 132 131 131 130 129 129 128 128 127 127 126 125 124 123 122 121 120 119 118 117 116 116 115 114 113 112 111 110 109 108 108 107 106 105 104 103 103 103 102 102
125 125 126 126 126 126 127 127 128 128 129 130 131 131 131 131 131 131 131 132 132 133 133 134 134 135 135 136 136 136 137 137 137 137 137 137 137 136 136 136 136 136 136 135 135 134 134 134 133 133 132 132 131 131 131 130 129 129 128 127 126 124 123 122 121 119 118 117 117 116 116 116 115 114 114 113 112 111 110 110 109 108 107 106 105
123 124 125 125 125 126 126 127 127 128 129 130 130 131 131 132 132 133 133 133 134 134 134 134 134 135 135 136 137 137 137 138 138 138 139 139 139 139 139 139 139 139 139 138 138 137 137 137 136 136 136 136 135 135 134 134 133 133 132 131 130 129 128 126 125 124 122 121 120 119 119 118 118 118 118 118 118 117 116 116 115 114 113 112 111
121 122 123 124 124 125 125 125 126 127 128 129 129 130 130 131 131 132 133 134 135 135 135 136 136 136 136 136 137 137 137 138 138 138 139 139 139 140 140 140 140 141 141 141 141 140 140 140 140 139 139 139 139 139 138 138 137 137 136 136 135 134 133 132 130 129 128 126 125 124 123 122 122 122 122 122 122 121 121 121 120 120 119 118 117
119 121 122 122 122 123 123 124 125 125 126 126 127 128 129 130 130 131 131 132 133 134 135 136 137 137 138 138 138 139 139 139 139 140 140 140 140 140 140 140 140 140 141 141 141 141 141 141 141 142 141 141 141 141 141 141 141 141 140 140 139 138 137 136 135 134 133 132 130 129 128 127 127 126 126 126 125 125 124 124 124 124 123 123 122
114 116 118 119 120 121 121 122 122 123 123 124 125 126 126 127 128 129 130 131 131 132 132 133 134 135 136 137 138 138 139 140 140 141 141 142 142 142 142 142 142 142 142 142 143 142 142 143 143 143 143 143 143 143 143 143 143 143 143 143 142 141 141 140 139 138 136 136 135 134 133 132 132 131 131 130 130 129 129 128 127 127 127 126 126
106 108 111 113 115 116 118 119 120 121 122 122 123 124 124 125 125 126 127 128 129 130 130 131 131 132 132 133 134 135 136 137 138 139 140 140 141 142 142 142 143 143 143 144 144 144 144 145 145 145 145 145 145 145 145 145 145 144 144 144 143 143 142 142 141 140 139 138 137 137 136 136 136 135 135 135 135 134 134 133 132 132 131 130 130
99 101 103 106 107 109 110 112 114 116 118 119 121 121 122 123 123 124 124 125 126 126 127 127 128 129 129 130 130 131 132 132 133 134 135 136 137 138 139 139 140 140 141 142 142 143 144 144 145 146 146 146 147 147 147 147 147 146 146 146 145 144 143 143 142 141 140 139 139 139 138 138 138 138 138 138 138 138 137 137 136 136 135 135 134
94 95 97 99 100 102 103 105 106 108 110 112 114 116 117 119 120 121 122 123 123 124 124 125 125 126 126 127 127 127 128 128 129 130 131 131 132 133 134 134 135 136 136 137 138 139 140 141 142 142 143 144 144 145 145 146 146 146 146 146 146 145 144 144 143 143 142 142 141 141 140 140 140 139 139 140 140 140 139 139 139 138 138 137 137
Wind_Direction
266 278 284 273 270 288 303 315 322 318 325 336 346 9 25 33 39 41 39 38 40 45 53 58 62 65 65 62 60 60 62 64 66 65 63 62 63 63 62 60 58 55 52 48 46 43 42 42 42 43 44 46 49 51 53 55 56 57 58 58 58 59 59 60 61 63 65 67 69 71 73 75 77 81 85 88 91 92 92 91 91 90 90 90 90
261 271 279 270 258 271 287 301 309 302 308 325 329 347 6 19 31 35 36 37 37 38 43 51 59 65 69 68 65 63 61 61 62 63 62 60 60 60 59 58 56 53 49 45 43 41 39 38 39 38 39 42 43 46 49 52 54 56 57 58 58 58 59 60 62 64 67 70 73 76 80 83 87 91 94 97 98 98 98 97 96 96 95 95 94
260 267 273 268 257 256 271 283 292 291 292 304 310 323 342 359 19 22 19 24 34 37 38 41 48 60 70 75 73 69 66 63 61 60 60 59 57 57 56 57 56 54 50 45 41 40 37 36 36 35 36 37 39 40 43 46 50 54 56 58 59 59 60 62 64 66 70 74 78 83 87 91 95 99 102 103 104 104 103 102 101 100 100 99 98
256 258 260 265 261 254 263 274 278 275 274 283 292 298 311 326 352 6 358 354 8 26 34 34 37 46 63 76 82 81 75 70 65 62 60 57 55 54 54 55 56 55 52 48 43 40 37 35 34 33 33 32 33 35 37 40 45 49 52 54 55 57 60 63 65 70 75 80 84 90 95 99 103 106 108 109 110 109 108 107 105 104 103 101 100
253 249 245 258 264 259 261 266 266 265 265 270 278 282 286 290 301 320 329 328 331 348 9 23 29 32 46 65 80 88 88 82 75 69 64 62 56 52 51 52 53 53 53 52 48 43 39 36 34 33 31 30 30 31 34 37 41 45 49 51 53 55 60 64 68 73 79 85 91 97 102 106 110 113 114 115 115 114 113 110 108 106 105 103 100
248 243 236 243 252 253 255 258 257 259 261 264 269 273 274 274 279 286 292 300 306 315 330 350 8 12 20 39 62 83 90 90 88 80 74 70 66 58 48 45 48 50 51 52 52 48 43 39 37 34 33 32 32 32 33 36 39 43 48 52 56 59 63 68 73 78 84 91 97 104 109 114 117 119 121 121 120 118 116 113 111 108 107 104 101
242 240 234 235 239 242 247 254 258 260 264 268 271 274 273 270 270 273 275 281 286 292 301 315 334 347 348 353 18 65 81 86 89 87 84 83 85 84 59 33 35 45 48 50 51 52 50 46 40 37 35 34 35 35 35 36 40 44 48 53 59 66 71 76 81 85 91 99 106 112 117 122 124 125 126 126 124 121 118 116 114 112 109 106 103
239 240 239 238 238 239 245 255 261 263 267 271 275 275 271 268 269 271 273 273 271 274 281 289 301 315 322 317 315 327 64 113 116 104 91 75 131 169 190 232 268 267 288 7 37 40 40 41 38 35 34 31 32 34 36 38 42 47 53 58 64 72 79 85 91 95 100 108 115 122 127 130 132 132 131 130 128 126 123 119 118 116 113 110 106
238 243 243 240 239 242 248 256 259 260 262 267 271 271 267 263 263 266 270 270 267 266 268 273 278 284 288 289 287 284 276 243 206 187 174 201 274 269 250 239 240 246 247 255 266 288 325 355 7 14 20 24 23 27 31 36 43 53 64 73 78 84 89 93 100 106 111 117 124 131 135 139 140 140 139 137 135 133 131 128 124 121 119 116 111
240 245 244 242 242 246 251 255 255 255 257 261 265 267 264 258 254 254 257 262 263 263 262 263 266 268 269 267 264 265 265 261 248 224 203 195 208 254 270 263 254 249 248 255 264 278 297 314 328 332 338 342 346 342 358 16 58 95 112 110 108 108 106 104 110 117 123 128 134 140 145 149 151 151 150 149 148 147 145 144 141 137 132 127 120
242 244 242 242 244 247 250 251 250 251 255 257 260 263 261 255 251 252 252 255 260 261 262 264 264 263 263 262 259 258 258 259 257 250 235 221 210 214 238 257 259 256 252 251 251 255 266 274 282 286 284 281 276 269 260 247 231 199 176 166 153 143 134 127 129 135 141 143 147 152 157 161 164 165 165 165 165 166 168 167 165 162 158 153 144
241 239 238 239 241 244 246 246 245 246 250 253 256 258 257 251 249 251 251 253 255 258 261 265 266 264 263 264 263 262 260 258 257 256 250 243 234 223 216 222 240 250 253 253 249 243 240 242 248 256 262 267 271 272 269 261 254 245 235 238 239 230 220 198 179 172 170 169 169 171 175 177 179 180 181 181 182 184 187 190 191 191 189 187 183
237 235 234 236 238 242 244 243 242 242 244 248 251 255 255 251 248 247 248 249 251 254 260 263 264 264 264 264 264 264 264 263 263 263 261 255 249 241 229 220 222 233 242 247 248 247 244 241 242 247 255 264 270 272 274 272 269 265 261 261 257 256 256 247 228 212 202 194 192 192 194 195 195 195 195 195 196 197 200 204 206 207 209 210 212
235 234 234 236 238 241 244 243 241 242 243 243 246 251 253 252 250 246 244 247 249 253 259 259 259 260 261 261 262 262 262 264 264 264 265 263 261 258 253 243 235 237 244 248 250 251 251 250 249 248 251 256 262 266 269 271 271 267 262 259 258 257 260 260 251 239 227 218 213 212 212 211 210 209 208 209 210 212 214 217 219 219 220 224 226
233 232 233 236 238 240 242 241 239 241 244 245 248 251 252 253 253 248 244 244 246 250 255 257 258 259 257 256 256 256 256 259 261 261 261 261 262 263 264 262 254 246 248 255 257 256 256 255 254 253 251 252 253 256 259 263 267 268 266 263 262 261 262 264 260 252 245 239 234 232 230 226 223 221 220 221 222 224 227 231 233 233 232 235 238
230 229 232 236 237 235 237 239 238 238 243 247 251 252 253 255 256 252 247 243 243 245 248 253 258 260 256 253 253 254 253 254 256 258 260 261 262 263 264 266 265 258 250 250 255 257 257 257 255 255 253 252 253 254 255 257 261 265 266 263 261 259 260 262 261 257 251 247 243 242 241 238 236 234 233 233 233 233 234 238 242 244 243 243 246
227 227 229 232 232 231 233 236 235 236 239 243 247 249 252 254 255 254 252 246 242 243 244 248 254 255 252 251 253 253 253 253 255 257 258 258 259 261 262 263 265 263 257 252 250 251 253 253 252 251 251 253 256 258 258 259 259 261 262 262 260 258 256 258 260 260 258 252 245 242 243 243 243 243 243 244 244 242 240 241 245 249 248 246 247
227 224 224 227 227 227 229 230 230 230 231 234 237 242 246 250 252 254 253 248 243 241 241 245 249 250 247 246 248 249 250 252 255 258 258 255 253 254 257 259 260 261 260 257 254 252 252 252 251 250 251 253 256 259 261 262 262 262 262 263 262 260 257 256 258 260 262 259 253 245 242 242 243 245 247 250 251 250 248 246 247 250 251 250 249
226 222 221 223 225 227 228 228 226 226 226 227 231 234 237 241 245 248 249 247 242 239 240 243 247 247 245 243 241 242 245 246 249 254 255 253 250 250 252 255 257 258 258 257 255 253 252 254 256 255 254 254 256 259 262 263 265 265 265 266 265 262 259 258 258 259 260 262 261 256 248 244 243 244 246 249 253 254 254 252 251 252 254 254 253
224 222 220 221 223 226 230 230 227 226 226 227 229 229 229 231 236 241 245 245 242 239 239 242 244 245 245 242 237 235 238 241 243 247 248 248 248 249 250 250 252 254 255 255 254 252 251 253 256 257 257 255 254 256 260 263 265 266 266 266 267 265 262 260 260 260 260 260 262 262 259 252 248 246 245 247 251 254 257 257 256 256 257 257 256
225 223 221 220 221 224 229 232 231 229 227 226 227 227 227 227 230 234 239 241 242 240 239 240 242 241 242 242 238 234 235 238 241 242 243 245 248 251 252 250 247 248 251 252 252 251 251 252 254 256 258 259 259 260 262 263 264 265 265 266 266 266 265 262 260 260 261 261 261 263 263 261 257 252 248 246 247 250 254 258 259 260 261 260 259
226 225 223 222 223 225 229 232 233 232 230 227 225 226 226 226 227 228 231 235 238 239 237 238 239 240 239 240 239 237 236 238 239 239 241 245 248 251 253 251 247 244 246 247 249 251 252 253 255 257 259 262 264 265 267 268 267 266 265 265 266 267 267 266 262 260 261 263 263 262 263 264 263 260 256 252 249 248 250 254 258 260 262 263 263
227 227 227 226 226 226 229 231 231 231 230 228 226 226 227 227 228 229 230 233 235 236 236 236 237 238 240 240 241 240 238 238 239 240 241 244 247 249 251 250 248 245 244 245 248 250 252 254 256 258 261 263 265 266 268 270 271 270 268 266 265 267 269 269 268 264 262 263 264 264 263 263 264 264 263 260 257 254 253 254 256 259 261 263 264
228 228 229 229 228 228 229 230 231 230 229 228 227 228 229 230 231 231 232 233 235 236 236 236 235 236 236 237 238 237 236 235 236 238 239 241 245 247 248 248 248 247 245 246 248 250 253 256 257 257 260 264 266 267 267 267 269 271 271 269 268 268 270 272 271 270 267 265 265 265 265 263 263 263 265 264 263 262 261 262 263 262 262 263 264
230 229 229 229 229 229 229 230 230 230 229 229 228 228 229 231 231 231 232 233 235 237 236 235 235 235 235 236 237 236 235 235 235 235 236 238 242 246 247 247 249 249 247 247 249 250 252 254 255 255 257 262 266 269 268 266 266 267 269 270 270 270 273 275 275 274 271 269 267 267 267 267 264 263 263 264 264 265 266 268 270 270 269 267 266
233 232 231 230 230 229 229 230 231 230 229 229 229 228 229 230 230 229 229 230 233 235 235 235 235 236 237 240 241 241 241 240 238 237 237 239 242 246 247 249 251 252 251 250 252 254 254 253 252 252 255 260 264 267 268 267 266 265 266 266 266 267 270 274 276 276 275 273 270 268 268 268 267 266 264 264 264 264 265 267 268 270 272 273 272
234 234 233 232 231 230 229 228 230 231 231 230 230 229 229 230 230 229 228 228 229 231 233 234 235 236 238 240 243 245 245 244 243 241 242 243 245 247 249 250 253 254 253 253 255 258 258 256 254 254 257 262 266 268 269 268 267 266 266 265 265 265 267 269 272 274 275 275 274 272 269 267 267 267 267 265 264 264 265 265 265 265 266 270 272
234 234 233 232 232 232 231 228 228 230 231 232 232 232 231 230 230 229 228 227 226 227 230 233 235 237 238 240 242 245 247 247 246 246 245 246 247 248 250 252 253 253 253 253 255 258 259 258 257 257 260 264 267 269 270 270 270 268 266 265 264 264 264 266 267 269 270 272 273 273 272 270 268 268 268 267 267 266 265 265 265 265 265 266 268
234 233 233 232 231 231 232 230 228 229 230 231 231 232 232 231 230 229 228 228 227 226 227 231 234 236 238 240 242 245 248 249 250 250 250 250 249 249 250 251 252 254 255 255 256 257 258 258 258 260 263 265 267 269 271 271 271 269 267 265 264 263 263 264 264 265 266 267 268 270 271 271 270 269 269 269 269 267 265 264 264 264 265 267 268
234 234 233 232 231 231 231 231 229 228 228 229 230 231 231 230 230 229 229 228 228 228 228 229 232 235 239 242 244 246 248 249 250 252 253 253 253 252 252 252 254 257 259 259 258 258 259 259 260 261 263 265 267 270 272 272 272 271 270 268 266 264 263 263 263 263 264 264 265 266 267 268 269 269 269 269 270 269 266 264 263 263 263 265 267
234 234 234 233 232 231 231 231 230 229 229 229 229 230 229 229 228 228 228 228 228 229 230 231 233 235 239 242 244 246 248 249 250 251 253 254 255 255 255 256 258 259 260 259 259 259 260 261 262 264 265 267 268 270 272 273 273 272 271 271 270 267 265 263 262 262 263 264 264 265 265 266 267 268 268 268 268 268 267 265 263 263 263 264 266
234 234 234 234 233 232 231 231 231 230 230 229 230 230 230 229 228 228 228 228 229 230 232 234 236 237 239 240 241 243 246 248 249 251 252 253 254 255 256 257 258 259 258 258 257 258 259 262 264 265 267 268 270 271 272 272 273 272 272 272 271 270 268 266 264 262 262 263 264 265 265 265 265 267 267 268 267 267 266 266 265 264 265 266 267
235 235 235 235 234 233 232 232 232 232 231 231 231 231 231 231 230 229 229 229 230 231 233 235 237 239 241 241 241 242 242 244 245 247 249 250 252 254 255 255 256 256 255 255 255 255 257 261 263 266 267 269 270 271 271 272 272 272 272 273 272 272 270 268 266 264 263 262 263 263 264 264 264 265 266 267 267 266 266 265 265 265 266 267 267
236 235 235 235 235 235 234 234 233 233 233 233 233 233 233 233 233 233 233 233 234 234 236 237 239 241 243 245 246 246 245 245 245 245 246 247 249 250 251 252 253 253 253 253 253 254 255 258 261 264 266 268 269 270 270 271 271 272 272 273 273 272 271 269 268 266 265 264 263 263 262 262 262 263 263 264 265 266 265 265 265 266 266 267 267
237 237 236 236 236 236 236 235 235 235 235 235 235 235 235 235 235 236 237 237 238 239 240 241 242 244 246 248 249 250 250 250 249 248 247 247 247 248 249 250 251 252 253 254 255 256 257 259 261 263 264 266 267 268 269 269 270 271 271 271 272 272 271 270 269 268 266 265 265 264 263 262 261 261 262 262 263 264 264 264 265 265 266 266 267
239 238 238 237 236 236 236 237 236 236 236 236 236 236 236 236 237 237 238 239 240 241 242 243 244 246 247 249 250 251 251 252 252 251 251 250 250 250 250 251 252 253 254 256 257 259 260 261 262 263 264 265 266 267 267 268 269 269 270 270 270 270 270 269 268 268 267 266 266 265 265 263 262 261 261 261 262 263 263 264 264 264 265 265 266
240 240 239 239 238 237 237 237 237 237 238 238 238 238 237 238 238 238 239 240 241 241 242 243 244 246 247 248 249 250 251 252 252 252 253 253 253 253 254 254 254 254 255 256 258 259 260 261 262 263 264 265 265 266 267 267 268 268 269 269 269 269 269 268 268 268 267 267 266 266 265 265 264 262 261 261 261 261 262 263 264 264 265 265 265
240 241 241 240 240 239 239 238 238 238 238 239 239 239 239 239 239 239 240 240 241 242 242 243 244 245 246 247 248 249 250 251 251 252 253 254 254 255 255 255 256 256 257 258 259 259 260 261 262 262 263 264 265 266 266 267 267 268 268 268 268 268 268 268 268 268 267 267 267 266 266 265 264 263 262 262 261 261 261 262 263 263 264 265 265
241 241 241 242 242 241 241 240 240 239 239 239 240 240 240 240 241 241 241 241 242 242 243 244 244 245 245 246 247 249 249 250 251 252 253 253 254 255 256 256 257 258 259 260 261 261 261 261 261 261 262 263 263 264 265 265 266 266 267 267 267 267 267 267 267 267 267 267 267 266 266 266 265 264 263 261 261 261 260 261 262 262 263 263 264
241 241 241 241 242 242 242 242 242 242 241 241 241 241 241 241 242 242 242 243 243 244 244 245 246 246 247 248 248 249 250 251 252 253 253 254 255 256 257 258 259 259 260 261 262 262 262 262 262 262 262 262 262 263 263 264 264 265 265 266 266 267 267 267 267 267 267 267 267 267 266 266 266 265 264 263 262 261 260 260 261 261 262 262 263
243 243 242 242 242 242 243 243 243 243 243 243 243 243 243 243 243 243 243 243 244 244 245 246 246 247 248 249 250 250 251 252 253 253 254 255 256 257 257 258 259 260 260 261 261 262 262 263 263 263 263 263 263 263 263 263 264 264 264 264 265 265 266 266 267 267 267 267 267 266 266 266 265 265 265 264 263 262 262 261 261 261 261 261 262
244 244 244 243 243 243 243 243 243 243 244 244 244 244 244 245 245 245 245 245 245 245 246 246 247 248 248 249 250 251 251 252 253 253 254 255 256 256 257 258 259 259 260 260 261 261 262 262 263 263 263 263 263 263 264 264 264 264 264 264 264 264 264 265 265 266 266 267 267 266 266 266 265 265 265 264 264 264 263 263 262 262 261 261 261
245 245 245 245 245 245 245 245 244 244 244 244 245 245 245 246 246 246 246 246 246 247 247 247 247 248 249 249 250 250 251 252 252 253 254 254 255 255 256 257 257 258 259 259 260 261 261 261 262 262 263 263 263 263 263 264 264 264 264 264 264 264 264 264 264 264 265 265 265 266 266 266 266 265 265 265 265 265 264 264 263 263 262 262 262
246 246 246 246 246 246 246 246 246 246 246 246 246 246 246 246 246 247 247 248 248 248 248 248 249 249 249 250 250 251 251 252 252 253 253 254 255 255 255 256 256 257 258 258 259 259 260 261 261 261 262 262 262 263 263 263 264 264 264 264 264 264 264 264 264 264 264 264 264 264 264 265 265 265 266 266 266 266 266 265 265 264 264 263 263
247 248 248 248 247 247 247 247 247 247 247 248 248 247 247 247 247 247 247 248 248 249 249 249 249 250 250 251 251 251 252 252 253 253 254 254 255 255 255 256 256 257 257 257 258 258 259 259 260 260 261 261 262 262 262 263 263 263 264 264 264 264 264 264 264 264 264 264 263 263 263 263 264 264 264 265 265 266 266 266 266 266 266 265 265
248 248 248 248 248 249 248 249 249 248 249 249 249 249 249 249 249 249 248 248 249 249 250 250 250 250 251 251 252 252 252 253 253 254 254 255 255 255 256 256 256 257 257 258 258 258 259 259 259 260 260 261 261 261 262 262 262 263 263 263 263 264 264 264 264 264 264 264 264 264 264 264 264 263 263 264 264 264 265 265 266 266 266 266 266
248 248 249 249 249 249 249 249 250 250 250 250 250 250 251 251 251 251 251 251 251 250 251 251 251 251 252 252 252 253 253 254 254 254 255 255 255 256 256 256 257 257 258 258 258 259 259 259 260 260 260 260 261 261 261 262 262 262 262 263 263 263 263 264 264 264 264 264 264 264 264 264 264 264 264 264 264 264 264 264 264 265 265 265 265
248 248 249 249 249 250 250 250 250 251 251 251 251 251 251 252 252 252 253 253 253 253 253 253 253 253 253 253 254 254 254 255 255 255 255 256 256 256 257 257 257 258 258 259 259 259 260 260 260 260 261 261 261 261 261 262 262 262 262 263 263 263 263 263 264 264 264 264 264 264 264 264 264 264 264 264 264 264 264 264 264 264 264 264 265
248 248 249 249 249 250 250 250 251 251 251 251 252 252 252 252 252 253 253 253 254 254 255 255 255 255 255 255 255 255 255 256 256 256 257 257 257 257 258 258 258 259 259 259 260 260 260 260 261 261 261 261 262 262 262 262 262 262 263 263 263 263 264 264 264 264 264 264 264 264 264 264 264 264 264 264 264 264 264 264 264 264 264 264 264
248 248 249 249 249 250 250 250 250 251 251 252 252 252 252 253 253 253 253 254 254 254 255 255 256 256 256 256 257 257 257 257 257 257 258 258 258 259 259 259 259 259 260 260 260 260 260 261 261 261 261 262 262 262 263 263 263 263 263 264 264 264 264 265 265 265 264 264 264 264 264 264 264 264 264 264 264 264 264 264 264 264 264 264 264
249 249 249 249 249 249 250 250 250 250 251 251 252 252 253 253 253 254 254 254 255 255 255 256 256 256 257 257 257 257 257 258 258 258 258 259 259 259 259 260 260 260 260 261 261 261 261 261 261 261 262 262 262 263 263 263 264 264 264 264 265 265 265 265 265 266 266 265 265 265 264 264 264 264 264 264 264 264 264 264 264 264 264 264 264
Height
11024 11024 11025 11026 11026 11027 11027 11027 11027 11027 11027 11027 11027 11028 11028 11027 11027 11027 11026 11026 11026 11025 11025 11025 11024 11024 11024 11024 11024 11023 11023 11022 11022 11021 11020 11019 11019 11018 11017 11017 11016 11016 11015 11015 11014 11014 11013 11012 11012 11011 11010 11010 11009 11009 11008 11007 11006 11005 11004 11003 11002 11001 11001 11000 10999 10998 10997 10997 10996 10995 10994 10994 10994 10994 10993 10993 10993 10993 10992 10992 10991 10990 10990 10989 10988
11021 11022 11022 11024 11024 11025 11026 11026 11026 11027 11027 11027 11027 11027 11027 11027 11027 11027 11027 11027 11027 11026 11026 11026 11025 11025 11025 11025 11025 11024 11024 11024 11023 11023 11022 11021 11020 11019 11019 11018 11018 11017 11017 11016 11016 11015 11015 11014 11013 11013 11012 11012 11011 11011 11010 11009 11009 11008 11007 11006 11005 11004 11004 11003 11002 11001 11000 11000 10999 10998 10998 10997 10997 10997 10998 10997 10997 10997 10997 10996 10995 10995 10995 10994 10993
11018 11019 11020 11021 11022 11023 11024 11025 11025 11025 11026 11026 11026 11026 11027 11027 11027 11027 11028 11028 11027 11027 11026 11026 11026 11026 11025 11025 11025 11025 11025 11025 11024 11024 11023 11022 11021 11021 11020 11020 11019 11019 11018 11018 11017 11017 11016 11016 11015 11015 11014 11014 11013 11013 11012 11012 11011 11011 11010 11009 11008 11007 11007 11006 11005 11004 11003 11003 11002 11002 11001 11001 11001 11001 11002 11001 11001 11001 11001 11000 11000 11000 10999 10999 10998
11016 11017 11018 11019 11021 11022 11022 11023 11024 11024 11025 11025 11025 11025 11026 11026 11027 11027 11027 11028 11028 11028 11027 11027 11026 11026 11026 11025 11025 11025 11025 11025 11025 11024 11024 11023 11022 11022 11022 11021 11021 11020 11019 11019 11019 11018 11018 11018 11017 11016 11016 11016 11016 11015 11015 11014 11014 11013 11013 11012 11011 11010 11010 11009 11008 11007 11007 11006 11006 11005 11005 11005 11005 11005 11005 11005 11005 11005 11004 11004 11004 11004 11003 11003 11002
11014 11015 11016 11017 11018 11020 11020 11021 11022 11023 11023 11023 11024 11024 11025 11025 11026 11026 11026 11027 11027 11027 11027 11027 11026 11026 11026 11026 11025 11025 11025 11025 11025 11025 11024 11024 11023 11023 11023 11022 11022 11021 11020 11020 11020 11020 11019 11019 11019 11018 11018 11018 11017 11017 11017 11017 11016 11016 11015 11014 11014 11013 11012 11012 11011 11011 11010 11010 11010 11009 11009 11009 11010 11009 11009 11009 11008 11008 11008 11008 11008 11007 11007 11007 11007
11011 11012 11013 11014 11015 11017 11018 11019 11019 11020 11021 11022 11023 11023 11024 11024 11024 11024 11025 11025 11026 11026 11027 11027 11026 11026 11026 11026 11025 11025 11025 11025 11025 11025 11025 11024 11024 11024 11023 11023 11023 11022 11021 11021 11020 11020 11020 11020 11020 11019 11019 11019 11019 11019 11019 11019 11018 11018 11017 11017 11016 11015 11015 11015 11014 11014 11013 11013 11013 11013 11013 11013 11013 11013 11013 11012 11012 11012 11012 11011 11011 11011 11011 11010 11010
11007 11008 11010 11011 11012 11013 11014 11016 11017 11018 11019 11020 11021 11022 11023 11023 11022 11022 11023 11023 11024 11024 11025 11025 11026 11026 11026 11025 11025 11025 11025 11024 11024 11024 11024 11024 11024 11024 11023 11023 11023 11022 11022 11021 11021 11021 11020 11020 11020 11020 11020 11020 11020 11020 11020 11020 11020 11020 11019 11019 11019 11018 11018 11017 11017 11016 11016 11016 11016 11016 11016 11016 11016 11016 11016 11016 11015 11015 11015 11014 11014 11014 11014 11013 11013
11003 11004 11007 11008 11009 11010 11011 11013 11014 11016 11017 11018 11019 11020 11021 11021 11021 11021 11021 11021 11022 11022 11023 11023 11024 11024 11025 11025 11025 11024 11024 11024 11024 11024 11024 11024 11024 11023 11023 11023 11023 11022 11022 11022 11021 11021 11021 11020 11020 11021 11021 11021 11021 11021 11021 11021 11021 11021 11021 11021 11020 11020 11020 11020 11019 11019 11019 11018 11018 11019 11019 11019 11018 11018 11018 11018 11018 11018 11018 11017 11017 11017 11016 11016 11016
10998 11000 11003 11004 11005 11006 11008 11009 11011 11012 11013 11014 11016 11017 11018 11019 11019 11019 11020 11020 11020 11020 11020 11021 11021 11022 11022 11023 11023 11023 11023 11023 11022 11022 11022 11023 11023 11023 11023 11022 11022 11022 11022 11022 11021 11021 11021 11021 11021 11021 11021 11021 11022 11022 11021 11021 11021 11021 11021 11021 11022 11022 11022 11021 11021 11021 11021 11021 11021 11021 11021 11021 11021 11021 11021 11021 11020 11020 11020 11020 11019 11019 11019 11018 11018
10993 10995 10998 10999 11000 11002 11003 11006 11007 11008 11010 11011 11012 11014 11014 11015 11015 11016 11017 11017 11017 11017 11017 11017 11018 11019 11019 11019 11020 11020 11021 11021 11021 11020 11020 11020 11021 11022 11022 11022 11022 11022 11022 11022 11021 11022 11022 11022 11021 11021 11021 11021 11021 11021 11021 11021 11021 11021 11021 11021 11022 11022 11023 11023 11023 11022 11022 11022 11022 11022 11022 11022 11022 11022 11022 11022 11022 11022 11021 11021 11021 11020 11020 11020 11020
10988 10990 10993 10995 10997 10997 10999 11001 11003 11004 11006 11008 11009 11010 11011 11011 11011 11012 11013 11014 11014 11014 11014 11015 11015 11015 11016 11016 11017 11017 11018 11018 11018 11018 11018 11018 11018 11019 11020 11020 11021 11021 11021 11021 11021 11021 11021 11021 11021 11021 11021 11021 11021 11021 11021 11021 11021 11021 11021 11021 11022 11022 11023 11023 11023 11023 11023 11023 11023 11023 11023 11023 11022 11022 11022 11022 11022 11022 11022 11022 11021 11021 11021 11021 11021
10981 10985 10988 10990 10992 10992 10993 10996 10998 11000 11003 11005 11006 11006 11007 11008 11008 11009 11010 11011 11011 11011 11012 11013 11013 11013 11013 11014 11015 11015 11015 11015 11015 11015 11016 11016 11016 11016 11017 11017 11018 11019 11019 11020 11019 11019 11019 11019 11020 11020 11020 11020 11020 11020 11020 11020 11020 11021 11021 11022 11022 11022 11022 11022 11023 11023 11023 11023 11023 11023 11023 11022 11022 11022 11022 11022 11022 11022 11021 11021 11021 11021 11021 11021 11021
10976 10979 10982 10984 10985 10987 10989 10991 10993 10995 10998 11001 11002 11002 11003 11004 11004 11005 11006 11007 11008 11009 11010 11010 11010 11010 11011 11012 11013 11013 11014 11013 11013 11013 11013 11013 11013 11013 11014 11015 11015 11016 11017 11017 11018 11018 11017 11017 11018 11018 11019 11019 11019 11019 11018 11019 11019 11020 11021 11021 11021 11021 11021 11021 11022 11022 11023 11023 11023 11023 11023 11023 11022 11022 11022 11021 11021 11021 11021 11020 11020 11020 11021 11021 11021
10971 10974 10977 10979 10981 10983 10985 10988 10989 10990 10992 10995 10997 10998 10998 10999 11000 11001 11001 11002 11004 11005 11006 11007 11007 11007 11008 11009 11010 11011 11011 11011 11010 11010 11010 11011 11011 11011 11012 11013 11013 11014 11015 11015 11015 11016 11016 11016 11016 11017 11017 11018 11017 11017 11017 11017 11018 11018 11019 11020 11020 11021 11021 11021 11021 11021 11022 11022 11023 11023 11023 11023 11023 11022 11022 11022 11021 11021 11021 11020 11020 11020 11020 11020 11020
10967 10970 10973 10975 10977 10979 10981 10984 10985 10986 10987 10989 10991 10993 10994 10994 10995 10996 10997 10998 10999 11001 11002 11003 11003 11004 11004 11005 11006 11007 11007 11007 11007 11007 11007 11007 11007 11008 11009 11010 11011 11012 11012 11013 11013 11013 11014 11015 11015 11016 11016 11016 11015 11015 11015 11015 11016 11017 11017 11018 11019 11019 11020 11020 11019 11019 11020 11020 11021 11021 11022 11022 11022 11022 11022 11021 11021 11021 11020 11020 11020 11020 11020 11020 11020
10962 10965 10968 10969 10972 10974 10976 10979 10980 10980 10982 10984 10985 10987 10989 10990 10990 10991 10992 10993 10995 10996 10997 10999 11000 11000 11000 11000 11001 11002 11003 11003 11003 11003 11003 11003 11004 11004 11006 11007 11008 11009 11009 11010 11010 11011 11011 11012 11013 11014 11014 11014 11013 11012 11013 11013 11014 11015 11016 11016 11017 11018 11018 11018 11017 11018 11018 11018 11019 11019 11019 11020 11020 11020 11020 11020 11020 11019 11019 11019 11018 11018 11018 11019 11019
10957 10960 10961 10961 10964 10968 10971 10973 10974 10975 10977 10979 10980 10982 10984 10985 10985 10986 10987 10988 10990 10991 10993 10994 10995 10996 10996 10996 10997 10998 10998 10999 10999 10999 11000 11000 11000 11001 11001 11003 11004 11005 11006 11006 11007 11007 11008 11009 11009 11010 11011 11011 11011 11011 11011 11011 11012 11012 11013 11014 11015 11015 11016 11016 11015 11015 11016 11016 11016 11016 11017 11017 11017 11018 11018 11018 11018 11017 11017 11017 11016 11016 11016 11016 11016
10951 10952 10953 10954 10958 10962 10963 10965 10968 10970 10972 10974 10976 10978 10980 10980 10979 10979 10980 10982 10985 10986 10987 10989 10990 10991 10991 10992 10992 10993 10994 10995 10995 10996 10996 10996 10996 10996 10997 10998 10999 11000 11002 11003 11003 11004 11004 11005 11006 11007 11008 11009 11009 11009 11009 11009 11009 11009 11010 11011 11012 11013 11014 11013 11013 11013 11013 11013 11013 11014 11014 11014 11015 11015 11015 11015 11015 11014 11014 11014 11014 11013 11013 11013 11013
10943 10945 10946 10948 10952 10955 10956 10957 10960 10963 10964 10966 10969 10971 10973 10974 10973 10973 10974 10976 10979 10981 10981 10983 10986 10986 10985 10985 10986 10987 10988 10990 10991 10992 10993 10993 10992 10992 10993 10994 10995 10996 10997 10999 10999 11000 11001 11002 11003 11004 11005 11006 11007 11007 11006 11006 11006 11007 11007 11008 11008 11010 11011 11011 11011 11011 11010 11010 11010 11011 11011 11012 11012 11012 11012 11012 11012 11011 11011 11011 11011 11011 11010 11010 11010
10935 10937 10939 10942 10945 10948 10950 10952 10954 10955 10956 10959 10961 10963 10965 10967 10967 10966 10967 10969 10971 10974 10975 10977 10980 10981 10978 10978 10980 10981 10982 10983 10985 10986 10987 10988 10988 10988 10989 10990 10990 10991 10993 10994 10995 10996 10997 10998 10999 11001 11002 11003 11003 11004 11004 11004 11003 11003 11004 11004 11005 11006 11007 11008 11008 11008 11008 11007 11007 11007 11008 11009 11009 11009 11009 11009 11009 11008 11008 11007 11008 11008 11007 11006 11007
10926 10929 10932 10935 10937 10940 10943 10945 10946 10948 10949 10952 10954 10955 10957 10959 10959 10959 10961 10962 10964 10967 10969 10970 10973 10973 10971 10971 10973 10975 10975 10976 10978 10979 10980 10982 10982 10983 10984 10985 10986 10987 10988 10989 10990 10991 10993 10994 10995 10996 10998 10999 11000 11001 11001 11001 11001 11000 11001 11001 11001 11002 11003 11004 11004 11004 11004 11004 11004 11004 11004 11005 11006 11006 11006 11006 11006 11006 11005 11004 11004 11004 11003 11002 11002
10917 10920 10924 10927 10930 10932 10935 10937 10939 10940 10942 10944 10946 10947 10949 10951 10951 10952 10955 10956 10957 10959 10960 10962 10964 10964 10963 10964 10966 10967 10968 10969 10971 10972 10973 10974 10975 10976 10978 10979 10980 10981 10982 10984 10985 10987 10988 10989 10990 10992 10993 10995 10996 10997 10998 10998 10998 10998 10998 10997 10997 10998 10998 10999 11000 11001 11001 11001 11001 11001 11001 11002 11002 11002 11002 11002 11002 11003 11002 11002 11001 11001 11000 10999 10998
10907 10910 10914 10918 10922 10924 10927 10929 10930 10932 10934 10936 10938 10940 10941 10942 10944 10946 10949 10949 10949 10950 10952 10954 10955 10955 10956 10958 10959 10960 10961 10963 10964 10965 10966 10966 10967 10969 10971 10972 10974 10975 10976 10977 10979 10981 10983 10985 10986 10987 10988 10990 10991 10993 10994 10994 10995 10995 10995 10994 10994 10994 10994 10995 10996 10996 10997 10997 10997 10997 10997 10998 10998 10998 10998 10998 10999 10999 10999 10999 10998 10998 10996 10995 10994
10896 10900 10904 10909 10913 10916 10918 10920 10922 10923 10925 10927 10930 10931 10933 10934 10936 10938 10940 10942 10942 10942 10944 10945 10947 10948 10949 10950 10950 10951 10953 10955 10957 10959 10959 10958 10959 10961 10963 10965 10966 10968 10969 10971 10973 10975 10977 10979 10980 10981 10982 10984 10986 10987 10989 10990 10991 10991 10991 10991 10991 10991 10991 10991 10992 10992 10992 10993 10993 10993 10994 10994 10994 10994 10994 10994 10994 10994 10995 10995 10995 10994 10993 10992 10990
10886 10890 10894 10898 10903 10906 10909 10911 10913 10915 10917 10919 10921 10923 10924 10925 10928 10930 10932 10934 10934 10934 10936 10938 10940 10942 10942 10942 10942 10943 10946 10947 10949 10951 10951 10950 10950 10952 10954 10957 10958 10960 10962 10963 10965 10968 10970 10972 10974 10975 10976 10977 10979 10981 10983 10984 10986 10987 10987 10987 10988 10988 10988 10988 10988 10988 10988 10988 10988 10989 10989 10990 10990 10990 10990 10990 10990 10990 10990 10991 10990 10990 10989 10988 10986
10874 10879 10883 10888 10892 10895 10898 10901 10903 10906 10908 10910 10912 10914 10915 10917 10919 10921 10923 10925 10926 10926 10928 10930 10932 10934 10935 10936 10937 10938 10940 10942 10943 10944 10943 10942 10943 10945 10947 10949 10951 10952 10954 10956 10958 10960 10962 10964 10966 10968 10969 10970 10972 10974 10976 10977 10979 10981 10982 10982 10983 10984 10984 10984 10984 10984 10984 10983 10983 10984 10984 10985 10985 10985 10985 10985 10985 10986 10986 10986 10986 10986 10985 10984 10982
10862 10867 10872 10876 10880 10884 10888 10890 10893 10895 10899 10901 10903 10905 10906 10908 10910 10912 10914 10916 10917 10918 10920 10921 10923 10925 10927 10929 10930 10931 10933 10935 10937 10936 10935 10936 10938 10939 10940 10942 10944 10945 10946 10948 10950 10952 10954 10956 10958 10959 10960 10962 10963 10966 10968 10970 10972 10973 10974 10976 10977 10978 10979 10979 10979 10979 10979 10978 10978 10979 10979 10979 10979 10979 10979 10980 10980 10980 10980 10981 10981 10981 10981 10980 10978
10850 10855 10859 10864 10868 10872 10876 10880 10882 10884 10887 10891 10893 10895 10897 10899 10901 10903 10904 10906 10908 10909 10911 10913 10914 10916 10918 10920 10922 10923 10925 10926 10928 10928 10928 10929 10930 10931 10933 10935 10936 10937 10939 10940 10942 10944 10946 10947 10949 10950 10951 10952 10954 10956 10959 10961 10964 10966 10967 10968 10970 10971 10972 10972 10973 10973 10973 10973 10973 10973 10973 10973 10973 10973 10973 10973 10973 10974 10974 10974 10974 10975 10975 10975 10974
10838 10843 10847 10852 10856 10860 10863 10868 10871 10874 10876 10879 10882 10885 10887 10889 10891 10893 10895 10896 10898 10899 10901 10903 10905 10907 10909 10911 10912 10914 10916 10917 10918 10920 10921 10921 10922 10923 10925 10926 10927 10928 10930 10932 10934 10935 10937 10938 10940 10941 10941 10942 10944 10946 10948 10951 10954 10956 10958 10960 10961 10962 10963 10964 10965 10965 10965 10966 10966 10966 10966 10967 10967 10966 10966 10966 10967 10967 10968 10968 10968 10968 10968 10968 10967
10826 10830 10835 10839 10844 10848 10851 10854 10859 10862 10865 10868 10871 10873 10876 10878 10880 10882 10884 10886 10888 10889 10891 10892 10894 10897 10899 10901 10902 10904 10906 10907 10908 10910 10911 10913 10914 10915 10916 10917 10919 10919 10920 10922 10924 10925 10927 10928 10930 10931 10933 10934 10935 10936 10938 10940 10943 10946 10948 10950 10952 10953 10954 10955 10955 10956 10957 10958 10958 10959 10960 10960 10960 10960 10960 10959 10959 10960 10961 10961 10961 10961 10961 10961 10960
10813 10817 10822 10826 10831 10835 10839 10842 10846 10850 10854 10857 10860 10862 10864 10866 10868 10871 10873 10875 10877 10878 10880 10881 10883 10886 10888 10890 10892 10894 10895 10897 10898 10900 10901 10903 10905 10906 10907 10908 10910 10911 10912 10912 10914 10915 10916 10918 10919 10921 10922 10924 10925 10927 10928 10930 10932 10935 10938 10940 10941 10943 10944 10946 10946 10947 10947 10948 10949 10950 10951 10952 10952 10952 10952 10952 10952 10952 10953 10953 10953 10953 10954 10954 10954
10799 10803 10808 10812 10817 10822 10826 10830 10834 10838 10842 10845 10848 10851 10853 10855 10857 10859 10861 10863 10865 10867 10868 10870 10872 10874 10876 10879 10881 10883 10885 10886 10888 10889 10891 10893 10894 10896 10897 10898 10900 10902 10903 10904 10905 10906 10907 10908 10909 10910 10911 10913 10914 10916 10917 10919 10921 10923 10926 10928 10930 10931 10933 10935 10936 10937 10938 10939 10939 10940 10941 10942 10943 10943 10943 10943 10943 10943 10944 10944 10945 10945 10946 10946 10946
10786 10790 10794 10798 10802 10807 10811 10816 10820 10824 10828 10832 10835 10838 10841 10844 10846 10848 10849 10851 10853 10855 10856 10859 10861 10863 10865 10867 10869 10871 10873 10875 10877 10879 10881 10882 10883 10885 10886 10888 10889 10891 10892 10894 10895 10896 10897 10898 10899 10900 10901 10902 10904 10905 10906 10907 10909 10911 10913 10915 10917 10920 10922 10923 10925 10926 10928 10929 10929 10930 10931 10932 10933 10933 10933 10933 10933 10933 10934 10934 10935 10935 10936 10936 10937
10771 10776 10780 10784 10788 10791 10796 10801 10805 10810 10814 10818 10821 10825 10828 10831 10833 10836 10837 10839 10841 10843 10845 10847 10849 10851 10853 10855 10857 10859 10861 10863 10866 10868 10870 10871 10873 10874 10875 10877 10878 10879 10881 10882 10883 10885 10886 10887 10888 10889 10890 10891 10893 10894 10895 10897 10898 10900 10901 10902 10904 10906 10908 10910 10912 10914 10915 10917 10918 10920 10920 10921 10922 10923 10923 10923 10923 10923 10923 10924 10924 10925 10925 10926 10927
10756 10761 10765 10769 10773 10777 10781 10786 10790 10794 10798 10802 10806 10810 10813 10816 10819 10822 10824 10826 10828 10831 10832 10834 10836 10838 10840 10842 10844 10845 10847 10850 10853 10855 10857 10859 10861 10862 10864 10866 10867 10867 10868 10869 10871 10872 10873 10874 10876 10877 10878 10879 10881 10882 10884 10885 10886 10888 10889 10891 10892 10894 10895 10897 10898 10900 10902 10904 10906 10908 10909 10909 10911 10912 10912 10913 10912 10912 10913 10913 10914 10914 10914 10915 10916
10740 10744 10749 10753 10758 10762 10767 10771 10776 10780 10783 10787 10791 10794 10798 10801 10805 10807 10809 10812 10814 10817 10819 10821 10823 10825 10827 10829 10830 10831 10833 10835 10838 10840 10843 10845 10847 10849 10851 10853 10854 10855 10856 10857 10858 10859 10860 10861 10863 10864 10865 10866 10868 10869 10871 10872 10874 10875 10876 10878 10879 10881 10882 10883 10884 10886 10887 10890 10892 10894 10896 10897 10898 10900 10901 10902 10901 10901 10902 10903 10903 10903 10904 10904 10905
10722 10727 10731 10736 10741 10746 10751 10756 10761 10764 10768 10771 10775 10779 10782 10786 10789 10792 10795 10797 10799 10802 10804 10807 10810 10812 10814 10816 10817 10817 10818 10820 10823 10826 10829 10831 10833 10834 10836 10838 10840 10841 10843 10844 10845 10847 10848 10848 10849 10850 10851 10852 10854 10855 10857 10858 10860 10861 10862 10864 10865 10867 10868 10869 10871 10872 10873 10875 10878 10880 10882 10883 10885 10886 10888 10890 10890 10890 10890 10891 10892 10892 10892 10892 10893
10705 10710 10714 10719 10724 10729 10735 10740 10745 10749 10752 10756 10759 10763 10767 10770 10773 10776 10779 10781 10784 10786 10789 10792 10795 10798 10802 10803 10802 10802 10804 10807 10810 10812 10814 10816 10818 10820 10822 10823 10824 10826 10828 10830 10831 10833 10835 10836 10836 10837 10838 10839 10840 10841 10842 10844 10845 10847 10848 10849 10851 10853 10854 10855 10856 10858 10859 10861 10863 10865 10867 10869 10871 10873 10874 10876 10877 10877 10878 10879 10880 10881 10881 10880 10881
10689 10693 10698 10702 10708 10713 10718 10724 10728 10732 10736 10740 10743 10746 10750 10754 10757 10760 10763 10765 10768 10770 10773 10777 10780 10784 10787 10787 10786 10786 10789 10793 10795 10796 10798 10801 10803 10805 10806 10807 10808 10810 10812 10814 10815 10817 10819 10820 10822 10823 10824 10825 10826 10827 10828 10829 10831 10832 10833 10835 10836 10838 10839 10840 10842 10843 10845 10847 10848 10850 10852 10854 10856 10858 10860 10861 10862 10864 10865 10866 10867 10868 10869 10869 10869
10672 10677 10682 10687 10692 10697 10702 10707 10712 10716 10720 10723 10727 10730 10733 10736 10739 10742 10745 10749 10751 10754 10758 10761 10764 10767 10769 10770 10770 10772 10775 10777 10778 10780 10782 10785 10788 10789 10790 10791 10792 10794 10795 10797 10798 10799 10801 10802 10804 10806 10808 10810 10811 10812 10813 10814 10816 10817 10818 10820 10821 10822 10824 10825 10826 10828 10830 10831 10833 10835 10837 10838 10840 10843 10845 10846 10847 10849 10850 10851 10852 10853 10855 10856 10856
10654 10659 10665 10670 10675 10680 10685 10690 10694 10698 10702 10706 10710 10713 10715 10718 10721 10725 10729 10732 10735 10739 10741 10744 10747 10749 10751 10752 10754 10756 10758 10760 10762 10763 10766 10768 10771 10773 10774 10774 10775 10777 10778 10779 10780 10781 10783 10785 10787 10788 10790 10792 10794 10796 10797 10798 10800 10801 10802 10804 10805 10807 10808 10809 10810 10812 10814 10816 10818 10819 10821 10822 10824 10826 10828 10830 10831 10833 10834 10836 10836 10837 10838 10840 10841
10636 10641 10647 10653 10658 10663 10668 10672 10677 10681 10685 10689 10692 10695 10697 10700 10704 10708 10711 10715 10719 10722 10724 10726 10729 10731 10733 10734 10736 10739 10741 10742 10744 10747 10749 10751 10753 10755 10756 10758 10759 10759 10760 10761 10763 10764 10766 10767 10769 10771 10772 10774 10776 10777 10779 10780 10782 10784 10786 10787 10789 10790 10792 10793 10794 10796 10798 10800 10802 10803 10804 10806 10807 10809 10811 10812 10814 10815 10817 10819 10820 10821 10822 10823 10825
10618 10624 10630 10636 10641 10646 10650 10655 10659 10663 10667 10670 10673 10676 10679 10683 10687 10690 10694 10698 10701 10704 10706 10709 10711 10714 10715 10716 10719 10721 10723 10725 10727 10729 10731 10733 10735 10737 10740 10742 10742 10742 10742 10744 10746 10747 10748 10750 10751 10753 10754 10755 10757 10758 10760 10762 10763 10765 10767 10769 10770 10772 10774 10776 10778 10780 10782 10784 10785 10786 10787 10788 10790 10791 10793 10794 10795 10797 10799 10801 10802 10803 10804 10806 10808
10603 10607 10613 10618 10624 10628 10632 10636 10640 10644 10647 10651 10653 10657 10661 10666 10670 10673 10676 10679 10681 10684 10688 10691 10693 10695 10697 10699 10701 10703 10705 10707 10709 10711 10713 10715 10717 10719 10722 10723 10723 10724 10725 10728 10729 10730 10731 10732 10733 10734 10735 10736 10738 10739 10740 10742 10743 10745 10747 10749 10751 10753 10755 10757 10759 10762 10764 10766 10768 10769 10770 10771 10772 10774 10775 10775 10776 10778 10780 10782 10783 10784 10786 10788 10790
10587 10591 10595 10600 10605 10609 10613 10618 10621 10624 10627 10630 10634 10638 10643 10648 10651 10655 10657 10660 10662 10665 10669 10672 10674 10676 10678 10680 10682 10684 10686 10688 10691 10693 10695 10696 10698 10701 10703 10704 10704 10705 10707 10709 10711 10712 10713 10714 10715 10716 10717 10717 10718 10720 10721 10722 10724 10725 10726 10728 10730 10732 10734 10737 10739 10742 10745 10747 10749 10751 10753 10754 10755 10756 10757 10757 10758 10759 10761 10763 10763 10765 10766 10768 10770
10570 10572 10576 10581 10586 10590 10595 10599 10602 10605 10608 10612 10616 10620 10624 10628 10631 10635 10638 10641 10644 10647 10650 10653 10655 10657 10660 10662 10664 10666 10668 10669 10671 10673 10675 10677 10680 10682 10683 10684 10685 10686 10688 10689 10691 10693 10694 10695 10696 10697 10698 10698 10699 10700 10701 10702 10704 10705 10706 10708 10709 10711 10714 10716 10719 10722 10724 10726 10729 10732 10734 10736 10737 10738 10738 10739 10740 10741 10742 10744 10744 10745 10747 10748 10750
10551 10554 10557 10562 10567 10572 10576 10580 10583 10587 10591 10595 10598 10602 10605 10608 10611 10615 10618 10621 10625 10628 10631 10633 10636 10638 10640 10643 10645 10647 10649 10650 10652 10654 10656 10657 10660 10662 10663 10665 10666 10667 10668 10669 10671 10672 10674 10675 10676 10677 10678 10679 10680 10680 10681 10682 10683 10684 10685 10687 10688 10691 10693 10696 10699 10702 10704 10706 10709 10711 10713 10715 10717 10718 10718 10719 10720 10721 10723 10724 10725 10726 10727 10728 10730
10534 10537 10540 10545 10550 10554 10558 10562 10565 10569 10573 10576 10579 10583 10586 10590 10593 10596 10598 10601 10604 10607 10610 10613 10616 10618 10621 10623 10625 10627 10629 10631 10632 10634 10636 10637 10639 10641 10643 10645 10647 10648 10649 10650 10651 10652 10653 10654 10655 10656 10657 10658 10659 10659 10660 10661 10662 10662 10663 10665 10667 10669 10672 10675 10678 10681 10684 10686 10689 10691 10692 10694 10695 10696 10697 10698 10699 10700 10702 10703 10704 10705 10706 10707 10709
10519 10522 10525 10528 10533 10537 10541 10545 10548 10551 10555 10558 10561 10564 10567 10570 10574 10576 10579 10582 10585 10587 10590 10592 10595 10598 10600 10603 10605 10607 10609 10611 10612 10614 10615 10617 10619 10620 10622 10625 10626 10628 10629 10630 10630 10631 10633 10633 10634 10634 10635 10636 10637 10637 10638 10639 10640 10641 10642 10644 10645 10647 10650 10653 10656 10659 10662 10666 10668 10669 10670 10672 10673 10674 10675 10676 10676 10677 10679 10681 10682 10683 10685 10686 10688
10505 10507 10509 10512 10516 10519 10524 10527 10531 10533 10536 10539 10542 10545 10549 10552 10555 10558 10560 10563 10566 10568 10570 10573 10575 10577 10580 10582 10585 10587 10589 10591 10592 10594 10595 10597 10598 10599 10601 10603 10605 10606 10608 10609 10610 10610 10611 10612 10612 10613 10613 10614 10615 10616 10617 10618 10618 10620 10621 10623 10624 10626 10629 10631 10634 10637 10639 10643 10645 10646 10647 10649 10650 10651 10652 10653 10653 10654 10656 10658 10659 10661 10663 10663 10664
10490 10492 10495 10497 10500 10503 10507 10511 10514 10517 10519 10522 10525 10527 10531 10534 10536 10539 10542 10545 10547 10549 10552 10554 10556 10558 10560 10562 10564 10566 10568 10570 10572 10574 10575 10577 10578 10579 10581 10582 10584 10585 10586 10587 10587 10588 10589 10590 10591 10592 10592 10593 10594 10595 10596 10597 10597 10598 10599 10601 10603 10606 10608 10610 10612 10614 10615 10617 10620 10621 10622 10624 10626 10627 10628 10628 10629 10630 10632 10634 10635 10638 10639 10640 10641